This is the latest recevied weather packets stored in our database for station/object SQ5DCP-1. If no packets are shown the sender has not sent any weather packets the latest 1 day(s).
| Time | Temp. | Humidity | Pressure | Rain* | Wind** | Luminosity | Snow |
|---|---|---|---|---|---|---|---|
| 1778024423 | 14.44° C | 50% | 1007.2 hPa | 0 mm | 0.89 m/s, 192° | - | - |
| 1778024121 | 14.44° C | 50% | 1007.3 hPa | 0 mm | 1.34 m/s, 187° | - | - |
| 1778023850 | 14.44° C | 50% | 1007.1 hPa | 0 mm | 1.34 m/s, 190° | - | - |
| 1778023819 | 14.44° C | 50% | 1007.1 hPa | 0 mm | 1.34 m/s, 190° | - | - |
| 1778023517 | 14.44° C | 50% | 1007.3 hPa | 0 mm | 1.34 m/s, 188° | - | - |
| 1778023246 | 14.44° C | 50% | 1007.2 hPa | 0 mm | 1.34 m/s, 186° | - | - |
| 1778023215 | 14.44° C | 50% | 1007.2 hPa | 0 mm | 1.34 m/s, 186° | - | - |
| 1778022934 | 15° C | 50% | 1007.2 hPa | 0 mm | 0.89 m/s, 181° | - | - |
| 1778022632 | 15° C | 50% | 1007.2 hPa | 0 mm | 0.89 m/s, 186° | - | - |
| 1778022331 | 15° C | 50% | 1007.2 hPa | 0 mm | 0.89 m/s, 187° | - | - |
| 1778022030 | 15° C | 49% | 1007.2 hPa | 0 mm | 0.89 m/s, 184° | - | - |
| 1778021727 | 15° C | 49% | 1007.1 hPa | 0 mm | 0.89 m/s, 188° | - | - |
| 1778021476 | 15.56° C | 49% | 1007.1 hPa | 0 mm | 0.89 m/s, 193° | - | - |
| 1778021425 | 15.56° C | 49% | 1007.1 hPa | 0 mm | 0.89 m/s, 193° | - | - |
| 1778021123 | 15.56° C | 48% | 1007.1 hPa | 0 mm | 0.89 m/s, 189° | - | - |
| 1778020822 | 15.56° C | 48% | 1007.1 hPa | 0 mm | 0.45 m/s, 188° | - | - |
| 1778020520 | 15.56° C | 48% | 1007.1 hPa | 0 mm | 0.45 m/s, 181° | - | - |
| 1778020217 | 15.56° C | 47% | 1007.1 hPa | 0 mm | 0.89 m/s, 184° | - | - |
| 1778019916 | 16.11° C | 47% | 1007.1 hPa | 0 mm | 0.89 m/s, 182° | - | - |
| 1778019634 | 16.11° C | 47% | 1007.1 hPa | 0 mm | 1.34 m/s, 177° | - | - |
| 1778019332 | 16.11° C | 47% | 1007.2 hPa | 0 mm | 0.89 m/s, 176° | - | - |
| 1778019031 | 16.11° C | 46% | 1007.2 hPa | 0 mm | 0.89 m/s, 177° | - | - |
| 1778018729 | 16.67° C | 46% | 1007.2 hPa | 0 mm | 0.89 m/s, 173° | - | - |
| 1778018459 | 16.67° C | 45% | 1007.3 hPa | 0 mm | 0.89 m/s, 177° | - | - |
| 1778018428 | 16.67° C | 45% | 1007.3 hPa | 0 mm | 0.89 m/s, 177° | - | - |
* Rain latest hour (hover to see other rain measurements)
** Current wind speed in m/s (hover to see current wind gust speed)